Flag for U.S.A. Weather past 2 weeks in Green Bay, Wisconsin, U.S.A.

48 °F


Feels Like: 47 °F
Forecast: 35 / 51 °F
Wind: 3 mph from South

Location: Austin Straubel International Airport

Current Time: Nov 26, 2015 at 11:52:37 AM

Latest Report: Nov 26, 2015 at 10:53 AM

Visibility: 4 mi

Pressure: 30.15 "Hg

Humidity: 96%

Dew point: 47 °F

Location of Green BayLocation

Historic Weather in Green Bay — Graph


Green Bay temperature yesterday

Maximum temperature yesterday: 49 °F (at 10:53 AM)
Minimum temperature yesterday: 35 °F (at 12:53 AM)
Average temperature yesterday: 44 °F

Past Weeks' High & Low Weather Summary

High59 °F (Nov 15, 2:53 PM)100% (Nov 12, 5:53 AM)30.34 "Hg (Nov 12, 5:53 AM)
Low16 °F (Nov 22, 6:53 AM)43% (Nov 14, 12:53 PM)29.08 "Hg (Nov 12, 4:53 AM)
Average40 °F74%29.95 "Hg
* Reported Nov 11 10:53 AM — Nov 26 10:53 AM, Green Bay, Weather by CustomWeather, © 2015

Note: Actual official high and low records may vary slightly from our data, if they occured in-between our weather recording intervals... More about our weather records


Green Bay weather history for previous 24 hours

Time TempWeatherWind HumidityBarometerVisibility
10:53 AM
Thu, Nov 26
48 °FFog.3 mph96%30.15 "Hg4 mi
9:53 AM47 °FFog.No wind97%30.17 "Hg3 mi
8:53 AM46 °FFog.5 mph96%30.18 "Hg6 mi
7:53 AM46 °FLight rain. Fog.5 mph93%30.18 "Hg6 mi
6:53 AM46 °FLight rain. Fog.5 mph93%30.16 "Hg6 mi
5:53 AM46 °FOvercast.7 mph89%30.16 "Hg8 mi
4:53 AM46 °FLow clouds.7 mph89%30.14 "Hg10 mi
3:53 AM46 °FLow clouds.6 mph89%30.14 "Hg8 mi
2:53 AM46 °FOvercast.10 mph89%30.14 "Hg10 mi
1:53 AM47 °FOvercast.9 mph80%30.14 "Hg10 mi
12:53 AM47 °FOvercast.9 mph77%30.13 "Hg10 mi
11:53 PM
Wed, Nov 25
46 °FOvercast.9 mph79%30.14 "Hg10 mi
10:53 PM46 °FOvercast.9 mph79%30.13 "Hg10 mi
9:53 PM46 °FOvercast.14 mph79%30.12 "Hg10 mi
8:53 PM46 °FOvercast.13 mph77%30.12 "Hg10 mi
7:53 PM45 °FOvercast.13 mph80%30.11 "Hg10 mi
6:53 PM46 °FOvercast.12 mph77%30.12 "Hg10 mi
5:53 PM46 °FOvercast.9 mph71%30.10 "Hg10 mi
4:53 PM47 °FMostly cloudy.13 mph66%30.08 "Hg10 mi
3:53 PM47 °FMore clouds than sun.13 mph69%30.05 "Hg10 mi
2:53 PM47 °FOvercast.12 mph66%30.06 "Hg10 mi
1:53 PM47 °FLight rain. Overcast.15 mph66%30.08 "Hg10 mi
12:53 PM48 °FMostly cloudy.13 mph61%30.08 "Hg10 mi
11:53 AM49 °FMostly cloudy.16 mph57%30.10 "Hg10 mi
Weather by CustomWeather, © 2015

See weather overviewHow to use our weather pages